Regional Weather Roundup
Issued by NWS

Home | Current Version | Previous Version | Graphics & Text | Print | Product List | Glossary On
Versions: 1 2 3 4 5 6 7 8 9 10 11 12 13 14 15 16 17 18 19 20 21 22 23 24 25 26 27 28 29 30 31 32 33 34 35 36 37 38 39 40 41 42 43 44 45 46 47 48 49 50
000
ASUS43 KMKX 212000
RWRWI

WISCONSIN REGIONAL WEATHER ROUNDUP
NATIONAL WEATHER SERVICE MILWAUKEE/SULLIVAN WI
200 PM CST WED FEB 21 2018

NOTE: "FAIR" INDICATES FEW OR NO CLOUDS BELOW 12,000 FEET WITH NO
SIGNIFICANT WEATHER AND/OR OBSTRUCTIONS TO VISIBILITY.

WIZ001-002-006>008-014>016-023>028-212100-
NORTHWEST WISCONSIN

CITY           SKY/WX    TMP DP  RH WIND       PRES   REMARKS
SUPERIOR ARPT  FAIR      21   5  49 SW13      30.57R WCI   9
ASHLAND        FAIR      20   5  52 SW15      30.56S WCI   6
HAYWARD        FAIR      19   2  47 SW8       30.55S WCI   9
SIREN          FAIR      19   3  49 SW8       30.58F WCI   9
CUMBERLAND     FAIR      16   3  57 SW8       30.57S WCI   5
RICE LAKE      FAIR      17   4  57 SW7       30.61S WCI   7
CHETEK         FAIR      17   3  55 SW7       30.61R WCI   7
LADYSMITH      FAIR      19   5  56 SW6       30.58S WCI  10
EAU CLAIRE     NOT AVBL
MENOMONIE      FAIR      19   3  49 W8        30.63S WCI   9
NEW RICHMOND   FAIR      18   3  52 S5        30.62R WCI  11
OSCEOLA        FAIR      20   3  47 CALM      30.64S
$$

WIZ003>005-009-010-017-018-212100-
NORTH CENTRAL WISCONSIN

CITY           SKY/WX    TMP DP  RH WIND       PRES   REMARKS
MANITOWISH WTR FAIR      16   6  66 W7        30.48S WCI   6
ARBOR VITAE    FAIR      19  10  66 SW9       30.49S WCI   8
WOODRUFF       FAIR      19  10  66 SW9       30.49S WCI   8
RHINELANDER    FAIR      20   8  60 W8        30.50S WCI  10
EAGLE RIVER    FAIR      18   4  54 W10       30.48S WCI   7
LAND O LAKES   FAIR      19   7  58 W9G16     30.49R WCI   8
PHILLIPS       FAIR      17   7  64 SW8       30.52R WCI   6
TOMAHAWK       FAIR      19   7  58 SW3       30.52S
MEDFORD        FAIR      17   4  58 SW9       30.54S WCI   5
MERRILL        FAIR      21   8  56 W9        30.55R WCI  11
$$

WIZ029-030-035-036-043>047-212100-
CENTRAL WISCONSIN

CITY           SKY/WX    TMP DP  RH WIND       PRES   REMARKS
WAUSAU         FAIR      17   7  64 W9        30.56R WCI   6
MOSINEE        MOSUNNY   18   9  68 W9        30.58R WCI   6
MARSHFIELD     FAIR      17   8  67 W5        30.57R WCI  10
STEVENS POINT  FAIR      17   6  61 W7        30.60R WCI   7
WAUPACA        FAIR      25   8  47 W9        30.60R WCI  16
WAUTOMA        FAIR      25  11  55 W7        30.61R WCI  17
WISC RAPIDS    FAIR      21   7  54 VRB6      30.61R WCI  13
CAMP DOUGLAS   PTSUNNY   23  10  58 W8        30.61S WCI  14
$$

WIZ011>013-019>022-031-037>040-048>050-212100-
NORTHEAST WISCONSIN

CITY           SKY/WX    TMP DP  RH WIND       PRES   REMARKS
ANTIGO         FAIR      17   9  71 SW6       30.53R WCI   8
SHAWANO        FAIR      25   9  49 W5        30.58R WCI  20
OCONTO         FAIR      25   8  49 W8        30.57R WCI  16
STURGEON BAY   FAIR      25  12  58 W12       30.58R WCI  14
GREEN BAY      FAIR      26  11  52 NW10      30.58R WCI  16
MANITOWOC      FAIR      25  12  58 W12       30.59R WCI  14
APPLETON       PTSUNNY   25   7  46 W12       30.57R WCI  14
CLINTONVILLE   FAIR      24   8  51 W8        30.59R WCI  15
OSHKOSH        FAIR      25  11  55 W12       30.58R WCI  14
$$

WIZ032>034-041-042-053>061-212100-
SOUTHWEST WISCONSIN

CITY           SKY/WX    TMP DP  RH WIND       PRES   REMARKS
LA CROSSE      FAIR      24  12  60 NW6       30.65S WCI  17
SPARTA         FAIR      21  12  69 W7        30.64S WCI  12
VIROQUA        FAIR      20  14  75 N5        30.59S WCI  14
BOSCOBEL       FAIR      26   7  44 VRB3      30.64S
PRAIRIE DU CHI FAIR      23   5  45 NW7       30.64S WCI  15
PLATTEVILLE    FAIR      24  14  66 NW7       30.61S WCI  16
$$

WIZ056-057-062-063-064-067-068-212100-
SOUTH CENTRAL WISCONSIN

CITY           SKY/WX    TMP DP  RH WIND       PRES   REMARKS
REEDSBURG      FAIR      24   8  51 W5        30.60F WCI  18
BARABOO/DELLS  FAIR      24   5  45 NW7       30.60S WCI  16
LONE ROCK      NOT AVBL
MINERAL POINT  FAIR      27  16  63 NW5       30.59R WCI  21
MADISON        CLOUDY    24  10  55 NW7       30.62R WCI  16
MIDDLETON      FAIR      26  14  60 NW7       30.60S WCI  19
WATERTOWN      FAIR      23  13  64 NW3       30.59S
MONROE         FAIR      27  16  63 N6        30.58R WCI  20
JANESVILLE     CLOUDY    28  16  59 N6        30.59S WCI  22
$$

WIZ051-052-058>065-066-070>072-212100-
SOUTHEAST WISCONSIN

CITY           SKY/WX    TMP DP  RH WIND       PRES   REMARKS
MILWAUKEE      CLOUDY    30  16  56 NW7       30.59R WCI  23
WAUKESHA       SUNNY     25  12  58 NW8       30.59R WCI  16
MILWAUKEE/TIMM SUNNY     27  12  54 NW5       30.60R WCI  21
RACINE         FAIR      30  17  58 NE7       30.60R WCI  23
BURLINGTON     FAIR      26  14  59 N5        30.59S WCI  21
KENOSHA        FAIR      29  16  58 NW3       30.58S
FOND DU LAC    FAIR      26   9  48 NW6       30.59R WCI  19
SHEBOYGAN      FAIR      25  12  58 NW9       30.58R WCI  15
WEST BEND      FAIR      27  16  63 NW6       30.58R WCI  20
JUNEAU         FAIR      22  11  64 NW3       30.60S
$$

LSZ147-162-212100-
LAKE SUPERIOR

STATION/POSITION TIME  TEMP    WIND        PRES    WAVE
                       AIR SEA DIR/SP/G            HT/PER
                 (UTC) (F)     (DEG/KT/KT) (MB)    (FT/S)
DEVILS ISLAND    1900   17     240/ 14/ 17 1035.1F
SAXON HARBOR     1930   22     220/ 10/ 14 1033.9S
$$

LMZ867-665-643>646-212100-
LAKE MICHIGAN

STATION/POSITION TIME  TEMP    WIND        PRES    WAVE
                       AIR SEA DIR/SP/G            HT/PER
                 (UTC) (F)     (DEG/KT/KT) (MB)    (FT/S)
NORTHPORT PIER   1940   24                 1034.5R
KEWAUNEE LAKESHO 1930   25     280/  8/ 13 1034.1S
SHEBOYGAN LAKESH 1900   23     280/  9/ 10 1036.5R
PORT WASHINGTON  1930   26     320/  5/  9 1036.9R
MILWAUKEE LAKESH 1930   27     310/  7/  9   N/A
KENOSHA   LAKESH 1900   27     350/  4/  6 1035.9
$$

TC  - TEMPERATURE IN CELSIUS
VSB - VISIBILITY IN STATUTE MILES
WCI - WIND CHILL INDEX
HX  - HEAT INDEX





USA.gov is the U.S. government's official web portal to all federal, state and local government web resources and services.